Torna al catalogo

THORAD AGENA D DEB

AttivoPO
NORAD 5066·DEBRIS·🇺🇸 United States

Lanciato Apr 8, 1970 da Vandenberg Space Force Base

Loading…

Prossimi Passaggi

TLE

Source: Space-Track
1 05066U 70025JL  26224.57350371  .00000399  00000-0  28108-3 0  9991
2 05066  99.8653 103.0049 0065871 339.1149  20.7326 14.03788234848575

Traccia THORAD AGENA D DEB in tempo reale con AllMySat

Download on the App Store